EW7180 Weather Reports


Display with metric or nautical units.
time (UTC)temp
F
wind
direction
speed
MPH
gust
MPH
rain 1hr
in
rain 24hr
in
rain mn
in
humidity
%
barometer
mb
20190116171207 34 90 0.0 0.0 0.00 0.19 0.11 92 1011.5
20190116170706 34 135 0.0 0.0 0.00 0.19 0.11 92 1011.5
20190116170209 34 90 0.0 0.0 0.00 0.19 0.11 92 1011.3
20190116165707 34 90 0.0 2.0 0.00 0.19 0.11 92 1011.3
20190116165207 34 113 0.0 2.0 0.00 0.19 0.11 92 1011.3
20190116164706 34 135 0.0 2.0 0.00 0.19 0.11 92 1011.3
20190116164208 34 158 0.0 3.0 0.00 0.19 0.11 92 1011.8
20190116163706 34 180 0.0 3.0 0.00 0.19 0.11 92 1011.8
20190116163207 34 158 1.0 3.0 0.00 0.19 0.11 92 1011.8
20190116162707 34 23 0.0 2.0 0.00 0.19 0.11 92 1011.8
20190116162208 34 0 0.0 2.0 0.00 0.19 0.11 92 1011.1
20190116161707 34 90 1.0 3.0 0.00 0.19 0.11 91 1011.1
20190116161208 34 23 1.0 3.0 0.00 0.19 0.11 91 1011.1
20190116160706 34 23 1.0 3.0 0.00 0.19 0.11 91 1011.1
20190116160209 34 23 1.0 0.0 0.00 0.19 0.11 91 1011.3
20190116155707 35 45 0.0 0.0 0.00 0.19 0.11 91 1011.3
20190116155208 35 90 0.0 0.0 0.00 0.19 0.11 91 1011.3
20190116154708 35 45 0.0 1.0 0.00 0.19 0.11 91 1011.3
20190116154209 35 158 0.0 1.0 0.00 0.19 0.11 91 1011.5
20190116153711 35 158 0.0 1.0 0.00 0.19 0.11 90 1011.5
20190116153207 35 113 0.0 1.0 0.00 0.19 0.11 90 1011.5
20190116152707 35 68 0.0 2.0 0.00 0.19 0.11 90 1011.5
20190116152208 35 23 1.0 2.0 0.00 0.19 0.11 90 1011.7
20190116151707 35 45 1.0 2.0 0.00 0.19 0.11 90 1011.7
20190116151208 35 113 1.0 2.0 0.00 0.19 0.11 90 1011.7
20190116150712 35 135 0.0 0.0 0.00 0.19 0.11 90 1011.7
20190116150209 35 113 0.0 0.0 0.00 0.19 0.11 90 1011.8
20190116145706 35 113 0.0 0.0 0.00 0.19 0.11 90 1011.8
20190116145207 36 23 0.0 0.0 0.00 0.19 0.11 90 1011.8
20190116144707 36 23 0.0 0.0 0.00 0.19 0.11 90 1011.8
20190116144208 36 23 0.0 0.0 0.00 0.19 0.11 90 1012.1
20190116143706 36 90 0.0 0.0 0.00 0.19 0.11 89 1012.1
20190116143207 36 113 0.0 1.0 0.00 0.19 0.11 89 1012.1
20190116142707 36 113 0.0 1.0 0.00 0.19 0.11 89 1012.1
20190116142209 36 135 0.0 1.0 0.00 0.19 0.11 89 1012.0
20190116141707 36 135 0.0 1.0 0.00 0.19 0.11 89 1012.0
20190116141208 36 338 0.0 0.0 0.00 0.19 0.11 89 1012.0
20190116140707 37 338 0.0 0.0 0.00 0.19 0.11 89 1012.0
20190116140209 37 135 0.0 0.0 0.00 0.19 0.11 89 1011.8
20190116135706 37 45 0.0 2.0 0.00 0.19 0.11 89 1011.8
20190116135208 37 293 0.0 2.0 0.00 0.19 0.11 89 1011.8
20190116134706 37 315 0.0 2.0 0.00 0.19 0.11 89 1011.8
20190116134209 37 338 0.0 2.0 0.00 0.19 0.11 88 1012.0
20190116133706 37 338 0.0 2.0 0.00 0.19 0.11 88 1012.0
20190116133208 37 68 1.0 3.0 0.00 0.19 0.11 88 1012.0
20190116132707 37 68 1.0 3.0 0.00 0.19 0.11 88 1012.0
20190116132208 37 23 1.0 2.0 0.00 0.19 0.11 88 1012.5
20190116131706 37 338 1.0 2.0 0.00 0.19 0.11 88 1012.5
20190116131207 37 338 1.0 2.0 0.00 0.19 0.11 88 1012.5
20190116130707 37 315 0.0 2.0 0.00 0.19 0.11 88 1012.5
20190116130208 37 0 0.0 2.0 0.00 0.19 0.11 88 1012.1
20190116125706 37 45 0.0 2.0 0.00 0.19 0.11 88 1012.1
20190116125207 37 23 0.0 2.0 0.00 0.19 0.11 88 1012.1
20190116124706 37 338 0.0 2.0 0.00 0.19 0.11 88 1012.1
20190116124208 37 68 1.0 2.0 0.00 0.19 0.11 88 1012.1
20190116123707 37 23 1.0 3.0 0.00 0.19 0.11 88 1012.1
20190116123207 37 315 1.0 3.0 0.00 0.19 0.11 88 1012.1
20190116122707 37 338 1.0 3.0 0.00 0.19 0.11 88 1012.1
20190116122210 37 158 0.0 2.0 0.00 0.19 0.11 87 1011.8
20190116121707 37 135 0.0 0.0 0.00 0.19 0.11 87 1011.8
20190116121207 38 158 0.0 2.0 0.00 0.19 0.11 87 1011.8
20190116120706 38 90 0.0 2.0 0.00 0.19 0.11 87 1011.8
20190116120209 38 315 1.0 2.0 0.00 0.19 0.11 87 1012.4
20190116115706 38 23 2.0 2.0 0.00 0.19 0.11 87 1012.4
20190116115207 38 23 1.0 2.0 0.00 0.19 0.11 87 1012.4
20190116114707 38 0 0.0 3.0 0.00 0.19 0.11 87 1012.4
20190116114208 38 338 0.0 4.0 0.00 0.19 0.11 87 1012.2
20190116113706 38 180 1.0 4.0 0.00 0.19 0.11 87 1012.2
20190116113207 38 270 2.0 5.0 0.00 0.19 0.11 87 1012.2
20190116112707 38 270 2.0 5.0 0.00 0.19 0.11 87 1012.2
20190116112209 38 225 2.0 5.0 0.00 0.19 0.11 87 1012.3
20190116111707 38 180 2.0 5.0 0.00 0.19 0.11 87 1012.3
20190116111208 38 180 2.0 7.0 0.00 0.19 0.11 87 1012.3
20190116110707 38 180 3.0 7.0 0.00 0.19 0.11 87 1012.3
20190116110209 38 225 4.0 7.0 0.00 0.19 0.11 87 1012.3
20190116105706 38 68 3.0 5.0 0.00 0.19 0.11 87 1012.3
20190116105207 38 248 3.0 8.0 0.00 0.19 0.11 87 1012.3
20190116104706 38 180 4.0 8.0 0.00 0.19 0.11 87 1012.3
20190116104209 38 113 5.0 8.0 0.00 0.19 0.11 87 1012.3
20190116103706 38 225 5.0 9.0 0.00 0.19 0.11 87 1012.3
20190116103208 38 158 5.0 9.0 0.00 0.19 0.11 88 1012.3
20190116102707 38 180 5.0 8.0 0.00 0.19 0.11 88 1012.3
20190116102209 38 225 4.0 8.0 0.00 0.19 0.11 88 1012.3
20190116101706 38 203 4.0 5.0 0.00 0.19 0.11 88 1012.3
20190116101207 38 158 3.0 6.0 0.00 0.19 0.11 88 1012.3
20190116100707 38 113 3.0 6.0 0.00 0.19 0.11 88 1012.3
20190116100209 38 180 4.0 6.0 0.00 0.19 0.11 88 1012.5
20190116095707 38 135 3.0 8.0 0.00 0.19 0.11 88 1012.5
20190116095207 38 158 4.0 8.0 0.00 0.19 0.11 88 1012.5
20190116094707 38 158 4.0 8.0 0.00 0.19 0.11 89 1012.5
20190116094209 38 203 3.0 6.0 0.00 0.19 0.11 89 1012.6
20190116093706 38 180 4.0 6.0 0.00 0.19 0.11 89 1012.6
20190116093208 38 113 4.0 6.0 0.00 0.19 0.11 89 1012.6
20190116092706 38 180 4.0 6.0 0.00 0.19 0.11 89 1012.6
20190116092208 38 180 3.0 6.0 0.00 0.19 0.11 89 1012.6
20190116091707 37 135 3.0 4.0 0.00 0.19 0.11 89 1012.6
20190116091207 38 158 2.0 9.0 0.00 0.19 0.11 89 1012.6
20190116090706 38 158 3.0 9.0 0.00 0.19 0.11 89 1012.6
20190116090208 38 180 4.0 9.0 0.00 0.19 0.11 89 1012.5
20190116085707 37 180 4.0 8.0 0.00 0.19 0.11 89 1012.5
20190116085208 37 180 4.0 8.0 0.00 0.19 0.11 89 1012.5
20190116084706 37 180 4.0 8.0 0.00 0.19 0.11 89 1012.5
20190116084209 37 180 4.0 5.0 0.00 0.19 0.11 89 1012.1
20190116083706 37 158 4.0 6.0 0.00 0.19 0.11 89 1012.1
20190116083207 37 180 4.0 6.0 0.00 0.19 0.11 89 1012.1
20190116082707 37 225 5.0 8.0 0.00 0.19 0.11 89 1012.1
20190116082208 37 203 5.0 8.0 0.00 0.19 0.11 89 1012.1
20190116081706 37 270 5.0 6.0 0.00 0.19 0.11 89 1012.1
20190116081212 37 225 4.0 10.0 0.00 0.19 0.11 89 1012.1
20190116080707 37 225 5.0 10.0 0.00 0.19 0.11 89 1012.1
20190116080209 37 248 6.0 10.0 0.00 0.19 0.11 89 1011.9
20190116075706 37 248 5.0 13.0 0.00 0.19 0.11 89 1011.9
20190116075207 37 248 6.0 13.0 0.00 0.19 0.11 89 1011.9
20190116074708 37 203 7.0 13.0 0.00 0.19 0.11 89 1011.9
20190116074208 37 248 6.0 10.0 0.00 0.19 0.11 89 1011.5
20190116073707 37 270 6.0 10.0 0.00 0.19 0.11 89 1011.5
20190116073208 37 203 6.0 11.0 0.00 0.19 0.11 90 1011.5
20190116072707 37 270 6.0 11.0 0.00 0.19 0.11 90 1011.5
20190116072209 37 248 6.0 14.0 0.00 0.19 0.11 90 1011.5
20190116071707 37 270 6.0 14.0 0.00 0.19 0.11 90 1011.5
20190116071208 37 270 6.0 14.0 0.00 0.19 0.11 90 1011.5
20190116070707 37 248 8.0 12.0 0.00 0.19 0.11 91 1011.5
20190116070209 36 248 7.0 9.0 0.00 0.19 0.11 91 1011.2
20190116065706 36 225 5.0 9.0 0.00 0.19 0.11 91 1011.2
20190116065207 36 248 5.0 10.0 0.00 0.19 0.11 91 1011.2
20190116064707 36 248 5.0 10.0 0.00 0.19 0.11 91 1011.2
20190116064208 36 225 5.0 10.0 0.00 0.19 0.11 91 1011.1
20190116063707 36 270 5.0 8.0 0.00 0.19 0.11 91 1011.1
20190116063207 36 90 5.0 10.0 0.00 0.19 0.11 91 1011.1
20190116062706 36 248 5.0 10.0 0.00 0.19 0.11 91 1011.1
20190116062208 36 225 5.0 9.0 0.00 0.19 0.11 91 1010.9
20190116061707 36 248 5.0 9.0 0.00 0.19 0.11 91 1010.9
20190116061208 36 180 4.0 9.0 0.00 0.19 0.11 91 1010.9
20190116060706 36 248 5.0 9.0 0.00 0.19 0.11 91 1010.9
20190116060208 36 225 5.0 9.0 0.00 0.19 0.11 91 1010.7
20190116055706 36 225 6.0 12.0 0.00 0.19 0.11 91 1010.7
20190116055208 36 203 7.0 12.0 0.00 0.19 0.11 91 1010.7
20190116054706 36 225 6.0 8.0 0.00 0.19 0.11 91 1010.7
20190116054208 36 203 5.0 9.0 0.00 0.19 0.11 91 1010.5
20190116053707 36 270 5.0 9.0 0.00 0.19 0.11 91 1010.5
20190116053207 36 225 5.0 7.0 0.00 0.19 0.11 91 1010.5
20190116052707 36 248 5.0 8.0 0.00 0.19 0.11 91 1010.5
20190116052208 36 225 4.0 8.0 0.00 0.19 0.11 90 1010.3
20190116051708 36 180 4.0 9.0 0.00 0.19 0.11 90 1010.3
20190116051208 36 270 5.0 9.0 0.00 0.19 0.11 90 1010.3
20190116050706 36 225 6.0 9.0 0.00 0.19 0.11 90 1010.3
20190116050208 36 293 6.0 9.0 0.00 0.19 0.11 90 1010.3
20190116045706 37 270 7.0 9.0 0.00 0.19 0.11 90 1010.3
20190116045208 37 225 6.0 9.0 0.00 0.19 0.11 89 1010.3
20190116044707 37 225 6.0 9.0 0.00 0.19 0.11 89 1010.3
20190116044210 37 180 6.0 9.0 0.00 0.19 0.11 89 1010.1
20190116043707 37 180 6.0 9.0 0.00 0.19 0.11 89 1010.1
20190116043210 37 225 6.0 9.0 0.00 0.19 0.11 89 1010.1
20190116042707 37 180 6.0 12.0 0.00 0.19 0.11 89 1010.1
20190116042210 37 315 7.0 12.0 0.00 0.19 0.11 89 1010.1
20190116041708 37 270 8.0 12.0 0.00 0.19 0.11 89 1010.1
20190116041209 37 225 7.0 11.0 0.00 0.19 0.11 89 1010.1
20190116040707 37 270 6.0 11.0 0.00 0.19 0.11 89 1010.1
20190116040211 37 270 7.0 11.0 0.00 0.19 0.11 89 1010.1
20190116035707 37 225 7.0 14.0 0.00 0.19 0.11 89 1010.1
20190116035209 37 248 6.0 14.0 0.00 0.19 0.11 89 1010.1
20190116034707 37 248 6.0 9.0 0.00 0.19 0.11 89 1010.1
20190116034208 36 270 6.0 9.0 0.03 0.19 0.11 90 1010.1
20190116033706 36 45 6.0 7.0 0.03 0.19 0.11 90 1010.1
20190116033208 36 270 5.0 10.0 0.03 0.19 0.11 90 1010.1
20190116032706 36 270 6.0 10.0 0.03 0.19 0.11 90 1010.1
20190116032208 37 248 6.0 13.0 0.03 0.19 0.11 90 1010.2
20190116031707 36 248 6.0 13.0 0.03 0.19 0.11 90 1010.2
20190116031207 36 248 5.0 13.0 0.03 0.19 0.11 90 1010.2
20190116030705 37 203 4.0 12.0 0.03 0.19 0.11 90 1010.2
20190116030208 37 158 5.0 12.0 0.03 0.19 0.11 90 1010.2
20190116025707 37 248 5.0 12.0 0.03 0.19 0.11 90 1010.2
20190116025207 37 225 7.0 9.0 0.03 0.19 0.11 90 1010.2
20190116024706 37 180 7.0 10.0 0.00 0.17 0.08 90 1010.2
20190116024208 36 225 8.0 12.0 0.00 0.17 0.08 91 1010.1
20190116023706 36 270 8.0 12.0 0.00 0.17 0.08 91 1010.1
20190116023207 36 248 7.0 13.0 0.00 0.17 0.08 91 1010.1
20190116022706 36 225 7.0 13.0 0.03 0.17 0.08 91 1010.1
20190116022208 36 225 7.0 15.0 0.03 0.17 0.08 91 1010.1
20190116021707 36 248 8.0 15.0 0.03 0.17 0.08 91 1010.1
20190116021207 36 225 8.0 15.0 0.03 0.17 0.08 91 1010.1
20190116020706 36 270 8.0 14.0 0.03 0.17 0.08 91 1010.1
20190116020209 36 270 9.0 20.0 0.03 0.17 0.08 91 1010.1
20190116015706 36 248 9.0 20.0 0.03 0.17 0.08 91 1010.1
20190116015207 36 248 9.0 20.0 0.03 0.17 0.08 91 1010.1
20190116014706 36 248 8.0 15.0 0.03 0.17 0.08 91 1010.1
20190116014208 36 270 6.0 11.0 0.03 0.17 0.08 91 1010.3
20190116013706 36 248 6.0 10.0 0.03 0.17 0.08 91 1010.3
20190116013207 36 315 7.0 10.0 0.03 0.17 0.08 91 1010.3
20190116012706 36 248 7.0 12.0 0.00 0.14 0.06 90 1010.3
20190116012208 36 315 7.0 12.0 0.00 0.14 0.06 91 1009.8
20190116011707 36 248 7.0 14.0 0.00 0.14 0.06 91 1009.8
20190116011207 35 225 6.0 14.0 0.00 0.14 0.06 91 1009.8
20190116010707 35 225 7.0 14.0 0.00 0.14 0.06 91 1009.8
20190116010209 35 225 7.0 10.0 0.03 0.14 0.06 91 1009.8
20190116005706 35 203 7.0 10.0 0.03 0.14 0.06 91 1009.8
20190116005207 35 203 6.0 10.0 0.03 0.14 0.06 91 1009.8
20190116004707 35 270 6.0 10.0 0.03 0.14 0.06 91 1009.8
20190116004208 35 225 7.0 10.0 0.03 0.14 0.06 92 1009.8
20190116003706 35 203 7.0 9.0 0.03 0.14 0.06 92 1009.8
20190116003208 35 248 7.0 10.0 0.03 0.14 0.06 92 1009.8
20190116002706 35 270 8.0 10.0 0.03 0.14 0.06 92 1009.8
20190116002208 35 225 7.0 10.0 0.03 0.14 0.06 92 1009.7
20190116001707 35 248 6.0 9.0 0.03 0.14 0.06 92 1009.7
20190116001207 35 180 7.0 12.0 0.06 0.14 0.06 92 1009.7
20190116000706 35 248 7.0 12.0 0.03 0.11 0.03 92 1009.7
20190116000208 34 270 6.0 9.0 0.03 0.11 0.03 92 1009.4
20190115235706 34 225 6.0 15.0 0.03 0.11 0.03 92 1009.4
20190115235207 34 248 7.0 15.0 0.03 0.11 0.03 92 1009.4
20190115234707 34 315 8.0 12.0 0.03 0.11 0.03 92 1009.4
20190115234208 34 203 7.0 12.0 0.03 0.11 0.03 92 1009.4
20190115233706 34 225 7.0 13.0 0.03 0.11 0.03 92 1009.4
20190115231208 34 248 9.0 13.0 0.03 0.08 0.00 92 1009.7
20190115230706 34 203 9.0 11.0 0.03 0.08 0.08 92 1009.7
20190115230208 34 225 9.0 11.0 0.03 0.08 0.08 92 1009.4
20190115225707 34 225 9.0 12.0 0.03 0.08 0.08 92 1009.4
20190115225207 34 225 8.0 12.0 0.03 0.08 0.08 92 1009.4
20190115224706 34 225 9.0 20.0 0.03 0.08 0.08 92 1009.4
20190115224208 34 225 10.0 20.0 0.03 0.08 0.08 92 1009.7
20190115223706 34 225 10.0 20.0 0.03 0.08 0.08 92 1009.7
20190115223207 34 225 10.0 13.0 0.03 0.08 0.08 92 1009.7
20190115222706 34 270 9.0 13.0 0.06 0.08 0.08 92 1009.7
20190115222208 34 248 9.0 17.0 0.06 0.08 0.08 92 1010.0
20190115221707 34 248 9.0 17.0 0.03 0.06 0.06 92 1010.0
20190115221207 34 203 9.0 17.0 0.03 0.06 0.06 92 1010.0
20190115220705 34 248 9.0 11.0 0.03 0.06 0.06 92 1010.0
20190115220208 34 225 9.0 12.0 0.03 0.06 0.06 92 1010.0
20190115215706 34 248 8.0 12.0 0.03 0.06 0.06 92 1010.0
20190115215207 34 248 8.0 12.0 0.03 0.06 0.06 92 1010.0
20190115214707 34 270 8.0 13.0 0.03 0.06 0.06 92 1010.0
20190115214208 34 248 9.0 13.0 0.06 0.06 0.06 92 1009.8
20190115213706 34 248 9.0 13.0 0.06 0.06 0.06 92 1009.8
20190115213207 34 270 8.0 13.0 0.03 0.03 0.03 92 1009.8
20190115212707 34 248 8.0 13.0 0.03 0.03 0.03 91 1009.8
20190115212208 34 180 7.0 11.0 0.03 0.03 0.03 91 1010.0
20190115211707 34 225 7.0 11.0 0.03 0.03 0.03 91 1010.0
20190115211207 34 248 7.0 9.0 0.03 0.03 0.03 91 1010.0
20190115210706 34 203 6.0 12.0 0.03 0.03 0.03 91 1010.0
20190115210208 34 248 7.0 12.0 0.03 0.03 0.03 91 1010.0
20190115205706 34 203 7.0 12.0 0.03 0.03 0.03 91 1010.0
20190115205207 34 180 7.0 10.0 0.03 0.03 0.03 91 1010.0
20190115204706 34 203 7.0 10.0 0.00 0.00 0.00 91 1010.0
20190115204208 34 270 7.0 14.0 0.00 0.00 0.00 91 1010.2
20190115203706 34 203 7.0 14.0 0.00 0.00 0.00 91 1010.2
20190115203217 34 225 7.0 13.0 0.00 0.00 0.00 90 1010.2
20190115202706 34 225 8.0 13.0 0.00 0.00 0.00 90 1010.2
20190115202208 34 225 8.0 13.0 0.00 0.00 0.00 90 1010.0
20190115201709 34 203 8.0 12.0 0.00 0.00 0.00 90 1010.0
20190115201207 34 203 7.0 12.0 0.00 0.00 0.00 89 1010.0
20190115200707 34 248 6.0 12.0 0.00 0.00 0.00 89 1010.0
20190115200208 34 203 6.0 12.0 0.00 0.00 0.00 88 1009.8
20190115195706 34 270 6.0 12.0 0.00 0.00 0.00 88 1009.8
20190115195207 34 225 6.0 13.0 0.00 0.00 0.00 88 1009.8
20190115194707 35 203 7.0 13.0 0.00 0.00 0.00 87 1009.8
20190115194208 35 225 7.0 13.0 0.00 0.00 0.00 86 1009.7
20190115193706 35 270 8.0 13.0 0.00 0.00 0.00 86 1009.7
20190115193206 35 225 9.0 14.0 0.00 0.00 0.00 85 1009.7
20190115192708 35 158 9.0 14.0 0.00 0.00 0.00 85 1009.7
20190115192210 35 248 7.0 14.0 0.00 0.00 0.00 84 1010.0
20190115191706 35 270 6.0 13.0 0.00 0.00 0.00 84 1010.0
20190115191208 35 203 6.0 13.0 0.00 0.00 0.00 84 1010.0
20190115190707 35 248 7.0 13.0 0.00 0.00 0.00 84 1010.0
20190115190209 35 270 8.0 13.0 0.00 0.00 0.00 84 1010.3
20190115185707 35 203 8.0 13.0 0.00 0.00 0.00 84 1010.3
20190115185208 35 225 9.0 13.0 0.00 0.00 0.00 83 1010.3
20190115184708 35 248 8.0 13.0 0.00 0.00 0.00 84 1010.3
20190115184209 35 248 8.0 11.0 0.00 0.00 0.00 84 1010.2
20190115183707 35 225 8.0 11.0 0.00 0.00 0.00 84 1010.2
20190115183209 35 248 7.0 11.0 0.00 0.00 0.00 84 1010.2
20190115182707 35 45 7.0 13.0 0.00 0.00 0.00 84 1010.2
20190115182210 35 248 8.0 13.0 0.00 0.00 0.00 84 1010.3
20190115181710 35 225 9.0 13.0 0.00 0.00 0.00 84 1010.3
20190115181209 35 248 8.0 13.0 0.00 0.00 0.00 84 1010.3
20190115180707 35 180 8.0 11.0 0.00 0.00 0.00 84 1010.3
20190115180211 35 203 7.0 10.0 0.00 0.00 0.00 84 1010.6
20190115175707 35 270 6.0 9.0 0.00 0.00 0.00 83 1010.6
20190115175208 35 270 6.0 10.0 0.00 0.00 0.00 83 1010.6
20190115174708 35 248 5.0 10.0 0.00 0.00 0.00 83 1010.6
20190115174209 35 203 6.0 13.0 0.00 0.00 0.00 83 1010.5
20190115173707 35 270 6.0 13.0 0.00 0.00 0.00 83 1010.5
20190115173211 35 225 6.0 13.0 0.00 0.00 0.00 82 1010.5
20190115172707 35 203 6.0 13.0 0.00 0.00 0.00 82 1010.5
20190115172209 35 315 7.0 13.0 0.00 0.00 0.00 82 1010.3
20190115171707 35 203 7.0 13.0 0.00 0.00 0.00 82 1010.3